Weather in Petrivka

Ukraine / Luhansk Region     48°32′01″N   38°48′59″E
temp.,
°C
wind,
m/s
gust,
m/s
humid.,
%
clouds,
%
prec.,
mm/h
press.,
hPa
HPBL,
m
22 april, thu
thu2200:00+9ssw488192 0.0 1019255
03:00+8ssw368889 0.0 1020184
06:00+7ssw34915 0.0 1021102
09:00+13sw34645 0.0 1022675
12:00+16sw344886 0.9 10211842
15:00+16sw234886 1.9 10211390
18:00+14wsw225999 0.4 102137
21:00+12s226447 0.4 102211
23 april, fri
fri2300:00+10wsw227362 0.0 102229
03:00+9sw337966 0.0 102253
06:00+8sw358220 0.0 1022118
09:00+13sw456216 0.0 1022686
12:00+16sw454378 0.1 10202203
15:00+16ssw4644100 0.1 10191874
18:00+15ssw695739 0.0 1018704
21:00+10ssw51170100 0.0 1018334
24 april, sat
sat2400:00+10ssw51368100 0.0 1016406
03:00+9ssw51073100 0.0 1015385
06:00+9ssw5127967 0.0 1015467
09:00+9w7982100 0.3 10151053
12:00+9w586577 0.6 10161294
15:00+12w81138100 0.6 10152562
18:00+11w711455 0.0 10151779
21:00+6w612725 0.0 1019999
25 april, sun
sun2500:00+4w611622 0.0 1020637
03:00+3w612708 0.0 1020611
06:00+2w49775 0.0 1021319
09:00+7wnw57515 0.0 10211196
12:00+10wnw463888 0.0 10212145
15:00+12wnw4534100 0.0 10202258
18:00+11w2338100 0.0 10191953
21:00+8sw1146100 0.0 102010
26 april, mon
mon2600:00+7ssw2249100 0.0 101915
03:00+5ssw2258100 0.0 101914
06:00+5sw2261100 0.0 101821
09:00+10sw344619 0.0 1017734
12:00+13ssw573721 0.0 10162153
15:00+13wsw894884 0.1 10151772
18:00+8wnw696261 0.4 10161291
21:00+5wnw22721 0.4 101736